| time (UTC) | temp C | wind direction | speed KPH | gust KPH | rain 1hr cm | rain 24hr cm | rain mn cm | humidity % | barometer mb |
| 20260507011534 | -17 | 198 | 0.0 | 0.0 | 0.00 | 0.00 | 0.00 | 1004.6 | |
| 20260507010018 | -17 | 197 | 0.0 | 1.6 | 0.00 | 0.00 | 0.00 | 1004.6 | |
| 20260507004509 | -17 | 198 | 0.0 | 1.6 | 0.00 | 0.00 | 0.00 | 1004.6 | |
| 20260507003011 | -17 | 198 | 0.0 | 1.6 | 0.00 | 0.00 | 0.00 | 1004.7 | |
| 20260507001501 | -17 | 197 | 0.0 | 1.6 | 0.00 | 0.00 | 0.00 | 1004.8 | |
| 20260507000059 | -17 | 197 | 1.6 | 4.8 | 0.00 | 0.00 | 0.00 | 1004.9 | |
| 20260506234539 | -17 | 197 | 1.6 | 3.2 | 0.00 | 0.00 | 0.00 | 1004.9 | |
| 20260506233038 | -17 | 198 | 1.6 | 3.2 | 0.00 | 0.00 | 0.00 | 1004.9 | |
| 20260506231538 | -17 | 198 | 1.6 | 4.8 | 0.00 | 0.00 | 0.00 | 1004.8 | |
| 20260506230043 | -17 | 198 | 3.2 | 6.4 | 0.00 | 0.00 | 0.00 | 1004.8 | |
| 20260506224538 | -17 | 198 | 3.2 | 6.4 | 0.00 | 0.00 | 0.00 | 1004.9 | |
| 20260506223042 | -17 | 198 | 3.2 | 8.0 | 0.00 | 0.00 | 0.00 | 1004.9 | |
| 20260506221544 | -17 | 197 | 3.2 | 6.4 | 0.00 | 0.00 | 0.00 | 1004.9 | |
| 20260506220024 | -17 | 197 | 4.8 | 6.4 | 0.00 | 0.00 | 0.00 | 1004.7 | |
| 20260506214523 | -17 | 197 | 4.8 | 6.4 | 0.00 | 0.00 | 0.00 | 1004.8 | |
| 20260506213018 | -17 | 197 | 3.2 | 8.0 | 0.00 | 0.00 | 0.00 | 1004.8 | |
| 20260506211514 | -17 | 197 | 1.6 | 4.8 | 0.00 | 0.00 | 0.00 | 1004.9 | |
| 20260506210012 | -17 | 197 | 3.2 | 6.4 | 0.00 | 0.00 | 0.00 | 1004.9 | |
| 20260506204506 | -17 | 197 | 1.6 | 4.8 | 0.00 | 0.00 | 0.00 | 1004.9 | |
| 20260506203102 | -17 | 197 | 0.0 | 1.6 | 0.00 | 0.00 | 0.00 | 1004.7 | |
| 20260506201555 | -17 | 197 | 0.0 | 0.0 | 0.00 | 0.00 | 0.00 | 1004.7 | |
| 20260506200025 | -17 | 197 | 0.0 | 1.6 | 0.00 | 0.00 | 0.00 | 1004.6 | |
| 20260506194539 | -17 | 197 | 1.6 | 1.6 | 0.00 | 0.00 | 0.00 | 1004.5 | |
| 20260506193035 | -17 | 197 | 1.6 | 4.8 | 0.00 | 0.00 | 0.00 | 1004.4 | |
| 20260506191533 | -17 | 197 | 0.0 | 1.6 | 0.00 | 0.00 | 0.00 | 1004.3 | |
| 20260506190026 | -17 | 197 | 0.0 | 4.8 | 0.00 | 0.00 | 0.00 | 1004.4 | |
| 20260506184525 | -17 | 197 | 4.8 | 6.4 | 0.00 | 0.00 | 0.00 | 1004.4 | |
| 20260506183018 | -17 | 197 | 4.8 | 8.0 | 0.00 | 0.00 | 0.00 | 1004.4 | |
| 20260506181511 | -17 | 197 | 3.2 | 8.0 | 0.00 | 0.00 | 0.00 | 1004.3 | |
| 20260506180038 | -17 | 197 | 8.0 | 12.9 | 0.00 | 0.00 | 0.00 | 1004.3 | |
| 20260506174535 | -17 | 197 | 6.4 | 11.3 | 0.00 | 0.00 | 0.00 | 1004.4 | |
| 20260506173054 | -17 | 197 | 4.8 | 12.9 | 0.00 | 0.00 | 0.00 | 1004.4 | |
| 20260506171521 | -17 | 197 | 6.4 | 12.9 | 0.00 | 0.00 | 0.00 | 1004.3 | |
| 20260506170014 | -17 | 197 | 6.4 | 12.9 | 0.00 | 0.00 | 0.00 | 1004.4 | |
| 20260506164509 | -17 | 197 | 9.7 | 12.9 | 0.00 | 0.00 | 0.00 | 1004.5 | |
| 20260506163050 | -17 | 197 | 11.3 | 14.5 | 0.00 | 0.00 | 0.00 | 1004.6 | |
| 20260506161547 | -17 | 197 | 8.0 | 11.3 | 0.00 | 0.00 | 0.00 | 1004.8 | |
| 20260506154522 | -17 | 197 | 8.0 | 11.3 | 0.00 | 0.00 | 0.00 | 1004.9 | |
| 20260506153017 | -17 | 198 | 6.4 | 11.3 | 0.00 | 0.00 | 0.00 | 1004.9 | |
| 20260506151513 | -17 | 197 | 8.0 | 14.5 | 0.00 | 0.00 | 0.00 | 1004.9 | |
| 20260506150009 | -17 | 197 | 6.4 | 12.9 | 0.00 | 0.00 | 0.00 | 1005.0 | |
| 20260506144555 | -17 | 197 | 8.0 | 14.5 | 0.00 | 0.00 | 0.00 | 1005.0 | |
| 20260506143034 | -17 | 197 | 11.3 | 16.1 | 0.00 | 0.00 | 0.00 | 1005.0 | |
| 20260506141526 | -17 | 197 | 6.4 | 14.5 | 0.00 | 0.00 | 0.00 | 1005.0 | |
| 20260506140022 | -17 | 198 | 11.3 | 16.1 | 0.00 | 0.00 | 0.00 | 1005.1 | |
| 20260506134534 | -17 | 197 | 8.0 | 19.3 | 0.00 | 0.00 | 0.00 | 1005.1 | |
| 20260506133025 | -17 | 197 | 14.5 | 22.5 | 0.00 | 0.00 | 0.00 | 1005.2 | |
| 20260506131532 | -17 | 198 | 12.9 | 22.5 | 0.00 | 0.00 | 0.00 | 1005.2 | |
| 20260506130017 | -17 | 197 | 14.5 | 20.9 | 0.00 | 0.00 | 0.00 | 1005.2 | |
| 20260506124555 | -17 | 198 | 14.5 | 22.5 | 0.00 | 0.00 | 0.00 | 1005.1 | |
| 20260506123050 | -17 | 197 | 12.9 | 20.9 | 0.00 | 0.00 | 0.00 | 1005.2 | |
| 20260506121535 | -17 | 198 | 17.7 | 25.7 | 0.00 | 0.00 | 0.00 | 1005.1 | |
| 20260506120033 | -17 | 198 | 14.5 | 25.7 | 0.00 | 0.00 | 0.00 | 1005.2 | |
| 20260506114524 | -17 | 197 | 12.9 | 25.7 | 0.00 | 0.00 | 0.00 | 1005.2 | |
| 20260506113020 | -17 | 197 | 12.9 | 24.1 | 0.00 | 0.00 | 0.00 | 1005.3 | |
| 20260506111515 | -17 | 196 | 11.3 | 32.2 | 0.00 | 0.00 | 0.00 | 1005.4 | |
| 20260506110011 | -17 | 196 | 14.5 | 25.7 | 0.00 | 0.00 | 0.00 | 1005.4 | |
| 20260506104507 | -17 | 196 | 17.7 | 25.7 | 0.00 | 0.00 | 0.00 | 1005.5 | |
| 20260506103002 | -17 | 197 | 19.3 | 25.7 | 0.00 | 0.00 | 0.00 | 1005.6 | |
| 20260506101557 | -17 | 197 | 14.5 | 24.1 | 0.00 | 0.00 | 0.00 | 1005.6 | |
| 20260506094544 | -17 | 197 | 14.5 | 25.7 | 0.00 | 0.00 | 0.00 | 1005.7 | |
| 20260506093037 | -17 | 197 | 17.7 | 25.7 | 0.00 | 0.00 | 0.00 | 1005.8 | |
| 20260506091533 | -17 | 197 | 20.9 | 27.4 | 0.00 | 0.00 | 0.00 | 1005.7 | |
| 20260506090037 | -17 | 198 | 14.5 | 24.1 | 0.00 | 0.00 | 0.00 | 1005.7 | |
| 20260506084523 | -17 | 197 | 14.5 | 17.7 | 0.00 | 0.00 | 0.00 | 1005.7 | |
| 20260506083028 | -17 | 197 | 3.2 | 8.0 | 0.00 | 0.00 | 0.00 | 1005.8 | |
| 20260506081504 | -17 | 196 | 3.2 | 6.4 | 0.00 | 0.00 | 0.00 | 1005.8 | |
| 20260506073004 | -17 | 197 | 1.6 | 4.8 | 0.00 | 0.00 | 0.00 | 1005.7 | |
| 20260506071559 | -17 | 197 | 1.6 | 3.2 | 0.00 | 0.00 | 0.00 | 1005.7 | |
| 20260506061547 | -17 | 197 | 0.0 | 3.2 | 0.00 | 0.00 | 0.00 | 1005.5 | |
| 20260506044554 | -17 | 197 | 0.0 | 1.6 | 0.00 | 0.00 | 0.00 | 1005.2 | |
| 20260506043048 | -17 | 197 | 0.0 | 3.2 | 0.00 | 0.00 | 0.00 | 1005.2 | |
| 20260506041542 | -17 | 197 | 0.0 | 3.2 | 0.00 | 0.00 | 0.00 | 1005.2 | |
| 20260506040016 | -17 | 197 | 0.0 | 3.2 | 0.00 | 0.00 | 0.00 | 1005.3 | |
| 20260506034613 | -17 | 197 | 1.6 | 3.2 | 0.00 | 0.00 | 0.00 | 1005.3 | |
| 20260506033050 | -17 | 197 | 0.0 | 3.2 | 0.00 | 0.00 | 0.00 | 1005.4 | |
| 20260506031604 | -17 | 197 | 1.6 | 3.2 | 0.00 | 0.00 | 0.00 | 1005.3 | |
| 20260506030048 | -17 | 197 | 1.6 | 6.4 | 0.00 | 0.00 | 0.00 | 1005.4 | |
| 20260506024533 | -17 | 197 | 4.8 | 9.7 | 0.00 | 0.00 | 0.00 | 1005.5 | |
| 20260506023008 | -17 | 197 | 1.6 | 4.8 | 0.00 | 0.00 | 0.00 | 1005.5 | |
| 20260506021504 | -17 | 197 | 1.6 | 4.8 | 0.00 | 0.00 | 0.00 | 1005.5 | |
| 20260506020059 | -17 | 197 | 1.6 | 4.8 | 0.00 | 0.00 | 0.00 | 1005.5 | |
| 20260506014548 | -17 | 197 | 0.0 | 3.2 | 0.00 | 0.00 | 0.00 | 1005.5 | |
| 20260506013024 | -17 | 197 | 0.0 | 3.2 | 0.00 | 0.00 | 0.00 | 1005.6 |